Shelby, NC

5:41 PM EST on December 07, 2019 (GMT -0500)
Shelby Municipal

Weather History for KEHO - August, 2019

Change the Weather History Date:

Monday, August 19, 2019

  Actual Average (WUND) Record (WUND)
Temperature  
Mean Temperature 80 °F -  
Max Temperature 92 °F - - (-1)
Min Temperature 67 °F - - (-1)
Cooling Degree Days 14    
Growing Degree Days 30 (Base 50)    
Moisture  
Dew Point 69 °F    
Average Humidity 84    
Maximum Humidity 100    
Minimum Humidity 41    
Precipitation  
Precipitation 0.07 in - - ()
Sea Level Pressure  
Sea Level Pressure 30.08 in    
Wind  
Wind Speed 1 mph (ESE)    
Max Wind Speed 16 mph    
Max Gust Speed 23 mph    
Visibility 10 miles    
Events Rain    
Averages and records for this station are not official NWS values.
T = Trace of Precipitation, MM = Missing Value Source: NWS Daily Summary

Daily Weather History Graph

Daily Weather History Graph

Search for Another Location

Airport or City:

Astronomy

Aug. 19, 2019 Rise Set
Actual Time 6:48 AM EDT 8:10 PM EDT
Civil Twilight 6:22 AM EDT 8:37 PM EDT
Nautical Twilight 5:50 AM EDT 9:09 PM EDT
Astronomical Twilight 5:16 AM EDT 9:42 PM EDT
Moon 10:39 PM EDT (8/19) 10:21 AM EDT (8/19)
Length of Visible Light 14h 14m
Length of Day
13h 21m
Waning Gibbous, 85% of the Moon is Illuminated
Aug 19
Waning Gibbous
Aug 23
Last Quarter
Aug 30
New
Sep 5
First Quarter
Sep 14
Full

Hourly Weather History & Observations

Time (EDT) Temp. Heat Index Dew Point Humidity Pressure Visibility Wind Dir Wind Speed Gust Speed Precip Events Conditions
12:15 AM 70.7 °F - 69.4 °F 96% 30.05 in 10.0 mi Calm Calm - N/A   Clear
12:35 AM 70.7 °F - 69.1 °F 95% 30.05 in 10.0 mi Calm Calm - N/A   Clear
12:55 AM 70.2 °F - 69.3 °F 97% 30.05 in 10.0 mi Calm Calm - N/A   Clear
1:15 AM 70.5 °F - 69.1 °F 95% 30.05 in 10.0 mi Calm Calm - N/A   Clear
1:35 AM 70.0 °F - 69.1 °F 97% 30.05 in 10.0 mi Calm Calm - N/A   Clear
1:55 AM 69.8 °F - 68.9 °F 97% 30.05 in 10.0 mi Calm Calm - N/A   Clear
2:15 AM 70.2 °F - 68.9 °F 96% 30.05 in 10.0 mi Calm Calm - N/A   Clear
2:35 AM 69.8 °F - 68.9 °F 97% 30.05 in 10.0 mi Calm Calm - N/A   Clear
2:55 AM 69.8 °F - 68.7 °F 96% 30.05 in 10.0 mi Calm Calm - N/A   Clear
3:15 AM 69.4 °F - 68.9 °F 98% 30.05 in 10.0 mi Calm Calm - N/A   Clear
3:55 AM 68.5 °F - 68.4 °F 99% 30.05 in 10.0 mi Calm Calm - N/A   Clear
4:15 AM 69.8 °F - 68.7 °F 96% 30.04 in 10.0 mi Calm Calm - N/A   Clear
4:35 AM 69.1 °F - 68.4 °F 98% 30.04 in 10.0 mi Calm Calm - N/A   Clear
4:55 AM 68.5 °F - 68.2 °F 99% 30.05 in 10.0 mi Calm Calm - N/A   Clear
5:15 AM 68.9 °F - 68.2 °F 98% 30.06 in 10.0 mi Calm Calm - N/A   Clear
5:55 AM 67.6 °F - 67.3 °F 99% 30.06 in 7.0 mi Calm Calm - N/A   Clear
6:15 AM 68.5 °F - 68.4 °F 99% 30.07 in 10.0 mi Calm Calm - N/A   Scattered Clouds
6:35 AM 68.5 °F - 68.2 °F 99% 30.07 in 10.0 mi Calm Calm - N/A   Clear
6:55 AM 67.8 °F - 67.6 °F 99% 30.07 in 5.0 mi Calm Calm - N/A   Clear
7:15 AM 68.0 °F - 68.0 °F 100% 30.08 in 10.0 mi Calm Calm - N/A   Clear
7:35 AM 68.4 °F - 68.2 °F 99% 30.09 in 10.0 mi Calm Calm - N/A   Clear
7:55 AM 69.8 °F - 68.9 °F 97% 30.09 in 10.0 mi Calm Calm - N/A   Clear
8:15 AM 71.1 °F - 69.4 °F 95% 30.09 in 10.0 mi Calm Calm - N/A   Clear
8:35 AM 73.4 °F - 70.0 °F 89% 30.09 in 10.0 mi Calm Calm - N/A   Clear
8:55 AM 74.5 °F - 70.3 °F 87% 30.09 in 10.0 mi Calm Calm - N/A   Clear
9:15 AM 75.2 °F - 70.3 °F 85% 30.09 in 10.0 mi Calm Calm - N/A   Clear
9:55 AM 78.4 °F - 71.6 °F 79% 30.10 in 10.0 mi WSW 3.5 mph - N/A   Clear
10:15 AM 79.7 °F - 71.4 °F 76% 30.10 in 10.0 mi Calm Calm - N/A   Clear
10:35 AM 80.6 °F 84.6 °F 71.8 °F 74% 30.11 in 10.0 mi Calm Calm - N/A   Clear
10:55 AM 82.4 °F 87.7 °F 72.7 °F 72% 30.11 in 10.0 mi Calm Calm - N/A   Clear
11:15 AM 83.8 °F 89.8 °F 72.7 °F 69% 30.11 in 10.0 mi Calm Calm - N/A   Clear
11:35 AM 84.0 °F 89.6 °F 72.1 °F 67% 30.11 in 10.0 mi Calm Calm - N/A   Clear
11:55 AM 85.5 °F 91.5 °F 72.1 °F 64% 30.10 in 10.0 mi SSW 3.5 mph - N/A   Clear
12:15 PM 86.4 °F 91.4 °F 70.7 °F 59% 30.10 in 10.0 mi Calm Calm - N/A   Clear
12:35 PM 88.0 °F 95.6 °F 72.9 °F 61% 30.10 in 10.0 mi Calm Calm - N/A   Clear
12:55 PM 88.9 °F 95.1 °F 71.6 °F 56% 30.09 in 10.0 mi SE 4.6 mph - N/A   Clear
1:15 PM 89.2 °F 94.9 °F 70.9 °F 54% 30.09 in 10.0 mi SSE 3.5 mph - N/A   Clear
1:35 PM 89.8 °F 95.6 °F 70.7 °F 53% 30.08 in 10.0 mi South 3.5 mph - N/A   Clear
1:55 PM 90.5 °F 96.5 °F 70.7 °F 52% 30.08 in 10.0 mi Calm Calm - N/A   Clear
2:15 PM 91.0 °F 97.1 °F 70.3 °F 51% 30.07 in 10.0 mi Calm Calm - N/A   Clear
2:35 PM 91.9 °F 95.0 °F 66.7 °F 43% 30.07 in 10.0 mi SE 3.5 mph - N/A   Clear
2:55 PM 92.3 °F 97.0 °F 68.7 °F 46% 30.06 in 10.0 mi ESE 5.8 mph - N/A   Clear
3:15 PM 92.5 °F 96.4 °F 67.6 °F 44% 30.05 in 10.0 mi East 5.8 mph - N/A   Clear
3:35 PM 92.5 °F 95.9 °F 67.1 °F 43% 30.04 in 10.0 mi ESE 8.1 mph - N/A   Clear
3:55 PM 91.2 °F 92.9 °F 64.4 °F 41% 30.04 in 10.0 mi Calm Calm - N/A   Clear
4:15 PM 83.1 °F 85.7 °F 67.1 °F 58% 30.05 in 10.0 mi South 10.4 mph 19.6 mph N/A   Mostly Cloudy
4:35 PM 76.3 °F - 64.4 °F 67% 30.05 in 10.0 mi SSW 13.8 mph 23.0 mph N/A   Scattered Clouds
4:55 PM 73.8 °F - 66.9 °F 79% 30.10 in 10.0 mi WNW 11.5 mph 19.6 mph N/A Rain Light Rain
5:15 PM 74.7 °F - 66.4 °F 75% 30.11 in 10.0 mi North 16.1 mph 23.0 mph N/A Rain Light Rain
5:55 PM 73.2 °F - 68.2 °F 84% 30.07 in 10.0 mi West 3.5 mph - N/A Rain Light Rain
6:15 PM 70.9 °F - 69.1 °F 94% 30.12 in 7.0 mi ENE 6.9 mph - 0.02 in Rain Rain
6:35 PM 70.5 °F - 67.1 °F 89% 30.09 in 10.0 mi North 5.8 mph - 0.04 in Rain Rain
6:55 PM 70.5 °F - 67.6 °F 91% 30.07 in 10.0 mi North 8.1 mph - 0.06 in Rain Light Rain
7:15 PM 71.6 °F - 68.5 °F 90% 30.07 in 10.0 mi North 5.8 mph - N/A Rain Light Rain
7:35 PM 70.3 °F - 68.5 °F 94% 30.07 in 10.0 mi NW 5.8 mph - 0.01 in Rain Light Rain
7:55 PM 70.2 °F - 68.9 °F 96% 30.07 in 10.0 mi Calm Calm - 0.01 in   Clear
8:15 PM 70.2 °F - 69.4 °F 98% 30.07 in 10.0 mi Calm Calm - N/A   Clear
8:35 PM 70.3 °F - 69.4 °F 97% 30.08 in 10.0 mi Calm Calm - N/A   Clear
8:55 PM 70.3 °F - 69.4 °F 97% 30.10 in 10.0 mi Calm Calm - N/A   Clear
9:15 PM 70.2 °F - 69.8 °F 99% 30.12 in 10.0 mi Calm Calm - N/A   Clear
9:35 PM 70.3 °F - 70.0 °F 99% 30.12 in 10.0 mi Calm Calm - N/A   Clear
9:55 PM 70.5 °F - 70.0 °F 98% 30.14 in 10.0 mi South 6.9 mph - N/A   Clear
10:15 PM 70.2 °F - 69.4 °F 98% 30.14 in 10.0 mi NE 4.6 mph - N/A   Clear
10:35 PM 70.2 °F - 69.4 °F 98% 30.15 in 10.0 mi Calm Calm - N/A   Clear
10:55 PM 70.0 °F - 69.4 °F 98% 30.14 in 10.0 mi NW 3.5 mph - N/A   Clear
11:35 PM 70.2 °F - 69.4 °F 98% 30.13 in 10.0 mi WNW 4.6 mph - N/A   Clear
11:55 PM 70.0 °F - 69.1 °F 97% 30.13 in 10.0 mi NW 3.5 mph - N/A   Clear